Location: Unspecified
(0.0000°N, 0.0000°E)
Time: 19:33:46
(UTC+00:00)

FAISAT-2V - Visible Passes

Search period start: 30 May 2024 00:00
Search period end: 09 June 2024 00:00
Orbit: 935 x 991 km, 82.9° (Epoch: 30 May)

Date Brightness Start Highest point End Pass type
(mag) Time Alt. Az. Time Alt. Az. Time Alt. Az.
30 May 7.5 18:58:09 10° SSE 19:03:43 35° E 19:09:18 10° NNE visible
30 May 9.3 20:44:33 10° SW 20:48:31 18° W 20:52:31 10° NW visible
31 May 6.9 19:19:09 10° S 19:25:19 72° E 19:31:32 10° N visible
01 Jun 7.5 19:40:51 10° SSW 19:46:55 58° W 19:53:02 10° N visible
02 Jun 8.1 18:19:05 10° SE 18:23:44 22° E 18:28:24 10° NE visible
02 Jun 8.8 20:03:17 10° SW 20:08:31 29° W 20:13:48 10° NNW visible
03 Jun 7.3 18:39:27 10° SSE 18:45:19 44° E 18:51:14 10° NNE visible
03 Jun 9.7 20:27:08 10° WSW 20:30:08 14° W 20:33:08 10° WNW visible
04 Jun 7.0 19:00:42 10° S 19:06:55 89° E 19:13:13 10° N visible
05 Jun 8.0 19:22:36 10° SSW 19:28:31 46° W 19:34:29 10° NNW visible
06 Jun 9.2 19:45:22 10° SW 19:50:08 23° W 19:54:57 10° NW visible
07 Jun 7.1 18:20:51 10° S 18:26:56 56° E 18:33:04 10° NNE visible
07 Jun 10.0 20:10:45 10° W 20:11:45 10° W 20:12:45 10° WNW visible
08 Jun 7.3 18:42:18 10° S 18:48:32 74° W 18:54:49 10° N visible
